Wainwright, AK

9:08 AM AKST on December 02, 2016 (GMT -0900)
Wiley Post-Will Rogers Memorial

Weather History for PABR - October, 2012

Change the Weather History Date:

Thursday, October 18, 2012

  Actual Average Record
Temperature  
Mean Temperature 27 °F 16 °F  
Max Temperature 31 °F 21 °F 35 °F (1982)
Min Temperature 22 °F 11 °F -16 °F (1988)
Degree Days  
Heating Degree Days 38 49  
Month to date heating degree days 634 789  
Since 1 July heating degree days 2786 3330  
Cooling Degree Days 0 0  
Month to date cooling degree days 0 0  
Year to date cooling degree days 0 0  
Moisture  
Dew Point 20 °F    
Average Humidity 0    
Maximum Humidity 0    
Minimum Humidity 0    
Precipitation  
Precipitation T in 0.02 in 0.33 in (1982)
Month to date precipitation 0.77 0.27  
Year to date precipitation 5.51 4.04  
Snow  
Snow T in 0.30 in 2.70 in (1982)
Month to date snowfall 7.8 5.2  
Since 1 July snowfall 13.8 10.7  
Since 1 September snowfall 13.6 9.6  
Snow Depth 4.00 in    
Sea Level Pressure  
Sea Level Pressure 30.27 in    
Wind  
Wind Speed 9 mph (NNE)    
Max Wind Speed 17 mph    
Max Gust Speed 21 mph    
Visibility 10 miles    
Events Snow    
T = Trace of Precipitation, MM = Missing Value Source: NWS Daily Summary

Daily Weather History Graph

Daily Weather History Graph

Search for Another Location

Airport or City:

Trip Planner

Search our weather history database for the weather conditions in past years. The results will help you decide how hot, cold, wet, or windy it might be!

Date:

Astronomy

Oct. 18, 2012 Rise Set
Actual Time 10:04 AM AKDT 6:17 PM AKDT
Civil Twilight 8:55 AM AKDT 7:27 PM AKDT
Nautical Twilight 7:39 AM AKDT 8:42 PM AKDT
Astronomical Twilight 6:22 AM AKDT 9:59 PM AKDT
Moon No Moon Rise No Moon Set
Length of Visible Light 10h 32m
Length of Day
8h 12m
Waxing Crescent, 15% of the Moon is Illuminated
Oct 18
Waxing Crescent
Oct 21
First Quarter
Oct 29
Full
Nov 6
Last Quarter
Nov 13
New

Hourly Weather History & Observations

Time (AKDT) Temp. Windchill Dew Point Humidity Pressure Visibility Wind Dir Wind Speed Gust Speed Precip Events Conditions
12:53 AM 30.9 °F 20.7 °F 21.9 °F 69% 30.19 in 10.0 mi NNE 13.8 mph - N/A Snow Light Snow
1:21 AM 30.2 °F 19.3 °F 21.2 °F 69% 30.19 in 10.0 mi NNE 15.0 mph - 0.00 in Snow Light Snow
1:53 AM 30.9 °F 20.2 °F 21.9 °F 69% 30.20 in 9.0 mi NNE 15.0 mph - 0.00 in Snow Light Snow
2:53 AM 30.0 °F 19.5 °F 19.9 °F 66% 30.21 in 10.0 mi NNE 13.8 mph - 0.00 in   Partly Cloudy
3:53 AM 30.0 °F 19.1 °F 21.0 °F 69% 30.22 in 10.0 mi NNE 15.0 mph - N/A   Mostly Cloudy
4:53 AM 30.0 °F 20.0 °F 21.0 °F 69% 30.23 in 10.0 mi NNE 12.7 mph - N/A   Scattered Clouds
5:53 AM 28.9 °F 19.2 °F 21.0 °F 72% 30.24 in 10.0 mi NNE 11.5 mph - N/A   Scattered Clouds
6:53 AM 28.9 °F 18.6 °F 21.0 °F 72% 30.25 in 10.0 mi NNE 12.7 mph - N/A   Mostly Cloudy
7:53 AM 30.0 °F 20.5 °F 21.0 °F 69% 30.26 in 10.0 mi NNE 11.5 mph - N/A   Overcast
8:16 AM 30.2 °F 20.8 °F 21.2 °F 69% 30.25 in 10.0 mi NNE 11.5 mph - N/A   Overcast
8:26 AM 30.2 °F 21.3 °F 21.2 °F 69% 30.25 in 10.0 mi North 10.4 mph - N/A   Overcast
8:53 AM 30.0 °F 21.7 °F 21.0 °F 69% 30.26 in 10.0 mi NNE 9.2 mph - N/A   Overcast
9:53 AM 30.0 °F 21.7 °F 21.0 °F 69% 30.26 in 10.0 mi NNE 9.2 mph - N/A   Mostly Cloudy
10:53 AM 30.0 °F 22.4 °F 21.0 °F 69% 30.27 in 10.0 mi NNE 8.1 mph - N/A   Overcast
11:02 AM 30.2 °F 20.8 °F 21.2 °F 69% 30.27 in 10.0 mi North 11.5 mph - N/A   Overcast
11:34 AM 30.2 °F 21.3 °F 21.2 °F 69% 30.27 in 10.0 mi NNE 10.4 mph - N/A   Overcast
11:53 AM 30.0 °F 21.1 °F 21.0 °F 69% 30.28 in 10.0 mi NE 10.4 mph - N/A   Overcast
12:53 PM 30.0 °F 21.1 °F 21.0 °F 69% 30.29 in 10.0 mi NE 10.4 mph - N/A   Mostly Cloudy
1:53 PM 28.9 °F 21.1 °F 19.0 °F 67% 30.29 in 10.0 mi NE 8.1 mph - N/A   Mostly Cloudy
2:53 PM 30.0 °F 22.4 °F 19.0 °F 64% 30.30 in 10.0 mi NE 8.1 mph - N/A   Mostly Cloudy
3:53 PM 28.0 °F 20.8 °F 19.0 °F 69% 30.30 in 10.0 mi NE 6.9 mph - N/A   Mostly Cloudy
4:53 PM 28.9 °F 21.1 °F 19.0 °F 67% 30.30 in 10.0 mi NE 8.1 mph - N/A   Mostly Cloudy
5:53 PM 28.9 °F 21.1 °F 19.0 °F 67% 30.31 in 10.0 mi NE 8.1 mph - N/A   Overcast
6:53 PM 28.0 °F 22.8 °F 19.0 °F 69% 30.30 in 10.0 mi NE 4.6 mph - N/A   Overcast
7:53 PM 28.0 °F 21.7 °F 19.9 °F 72% 30.30 in 10.0 mi NE 5.8 mph - N/A   Overcast
8:53 PM 27.0 °F 18.7 °F 19.0 °F 72% 30.30 in 10.0 mi East 8.1 mph - N/A   Overcast
9:53 PM 26.1 °F - 19.9 °F 78% 30.30 in 9.0 mi Calm Calm - 0.00 in Snow Light Snow
10:18 PM 26.6 °F - 19.4 °F 74% 30.29 in 9.0 mi Calm Calm - 0.00 in   Overcast
10:53 PM 25.0 °F 20.7 °F 19.0 °F 78% 30.30 in 10.0 mi ESE 3.5 mph - 0.00 in   Overcast
11:53 PM 24.1 °F - 19.0 °F 81% 30.30 in 10.0 mi Calm Calm - N/A   Overcast